Location: Gerthausen
(50.5708°N, 10.1931°E)
Time: 11:05:08
(UTC+00:00)

Daily predictions for brighter satellites

Satellite Brightness Start Highest point End
(mag) Time Altitude Azimuth Time Altitude Azimuth Time Altitude Azimuth
SeaSat 1 2.4 16:59:16 10° SE 17:04:10 79° ENE 17:09:05 10° NNW
Resurs 1-3 3.9 17:01:07 10° SE 17:05:12 44° ENE 17:09:18 10° N
CZ-2D R/B 2.7 17:03:33 10° SSE 17:06:36 84° W 17:09:41 10° NNW
Resurs 01 Rocket 2.7 17:03:59 10° ESE 17:07:31 24° ENE 17:11:05 10° N
SAR-Lupe-1 4.1 17:06:17 10° SSE 17:09:46 56° ENE 17:13:17 10° N
Meteor 1-28 Rocket 4.3 17:06:47 10° N 17:09:57 41° WNW 17:13:05 10° SW
SJ-12 3.9 17:06:25 10° S 17:10:12 78° WSW 17:14:01 10° NNW
Cosmos 2322 4.2 17:05:34 10° NNW 17:11:16 69° WSW 17:16:57 10° SSE
USA 234 3.8 17:08:51 10° SE 17:15:19 62° SW 17:21:50 10° WNW
SL-16 R/B 3.3 17:12:29 10° NNW 17:17:05 25° NE 17:21:42 10° E
Cosmos 2227 Rocket 3.6 17:15:07 10° SE 17:18:43 18° E 17:22:20 10° ENE
Cosmos 1315 Rocket 3.1 17:14:57 10° NNW 17:18:45 67° W 17:22:31 10° S
SAR-Lupe-5 4.0 17:16:56 10° NNE 17:19:28 77° ESE 17:21:53 10° SSW
Spot 4 Rocket 4.2 17:15:13 10° SE 17:20:09 51° ENE 17:25:06 10° N
Cosmos 1674 Rocket 3.5 17:15:49 10° S 17:20:11 72° E 17:24:37 10° NNE
NOAA 6 4.4 17:15:34 10° SE 17:20:24 43° ENE 17:25:17 10° N
Cosmos 2016 Rocket 4.4 17:16:20 10° NNW 17:22:33 73° W 17:28:50 10° S
Cosmos 2242 Rocket 4.3 17:18:16 10° SSW 17:22:34 56° WNW 17:26:54 10° N
ARIANE 5 R/B 3.3 17:20:13 10° S 17:25:14 58° WSW 17:30:15 10° NNW
SAR-Lupe-4 3.5 17:22:21 10° SSE 17:25:55 89° ENE 17:29:31 10° NNW
NOSS 3-3 (A) 3.7 17:22:09 10° SSW 17:27:20 74° SE 17:33:37 10° NE
CARTOSAT-1 3.8 17:24:49 10° SE 17:28:49 44° ENE 17:32:50 10° N
Cosmos 2285 Rocket 4.0 17:30:18 10° NNW 17:36:47 86° ENE 17:43:11 10° SSE
Cosmos 2233 Rocket 4.3 17:30:40 10° NNW 17:36:57 76° W 17:43:14 10° S
USA 290 3.8 17:35:27 10° SW 17:38:24 34° WNW 17:41:22 10° N
NOSS 0 Rocket 4.4 17:33:13 10° NW 17:39:24 65° WSW 17:45:33 10° SSE
SL-19 R/B 4.4 17:35:01 10° SSE 17:41:05 64° ENE 17:46:52 10° NNW
CZ-4 R/B 3.1 17:42:56 13° NE 17:42:56 13° NE 17:44:15 10° NNE
ARIANE 6 FM1 Upper Stage 3.7 17:39:31 10° NW 17:43:00 28° NNE 17:45:03 18° ENE
NOSS 3-4 (A) 3.8 17:39:00 10° NW 17:45:35 77° NE 17:53:23 10° SE
NOSS 3-4 (C) 3.8 17:39:15 10° NW 17:45:52 77° NE 17:53:41 10° SE
Cosmos 2150 Rocket 4.1 17:42:32 10° NNW 17:47:35 50° ENE 17:52:33 10° SE
Orbus 7S? 4.4 17:38:57 10° WNW 17:49:05 79° NNE 17:52:36 16° ESE
Cosmos 2298 Rocket 4.2 17:45:34 10° NNW 17:50:45 51° ENE 17:55:54 10° SE
Terra 3.7 17:52:12 12° NE 17:52:12 12° NE 17:53:43 10° NNE
Radarsat Rocket 4.1 17:49:09 10° SSE 17:55:02 87° WSW 18:01:28 10° NNW
Helios 1A Rocket 4.5 17:58:04 13° SE 17:58:04 13° SE 17:58:37 10° SSE
Cosmos 1607 4.3 17:50:30 10° SW 17:56:35 64° NW 18:02:47 10° NE
Cosmos 1455 Rocket 2.9 17:52:52 10° N 17:57:11 76° E 18:01:29 10° SSE
CSL-04 Rocket 4.3 17:53:36 13° ESE 17:57:32 32° ENE 18:02:10 10° N
YAOGAN 3 4.4 17:54:15 10° SSE 17:58:26 72° ENE 18:02:38 10° N
YAOGAN 1 3.2 17:55:22 10° S 17:59:34 59° W 18:03:47 10° NNW
Cosmos 44 Rocket 3.7 17:55:20 10° S 17:59:59 43° ESE 18:03:11 19° ENE
Cosmos 2228 3.1 17:56:03 10° N 18:00:06 47° ENE 18:04:10 10° SSE
COSMO-SKYMED 1 2.3 17:55:59 10° NNE 18:00:07 81° ESE 18:04:13 10° SSW
Cosmos 1975 Rocket 3.5 17:56:07 10° SSE 18:00:07 38° E 18:04:08 10° NNE
PSLV R/B 3.4 17:56:11 10° SSE 18:00:19 88° WSW 18:04:26 10° NNW
RESURS DK-1 4.3 17:58:23 10° N 18:00:19 13° NE 18:00:24 13° NE
Cosmos 1782 3.1 17:58:37 10° N 18:01:56 34° ENE 18:03:12 26° ESE
ATLAS 2AS CENTAUR R/B 4.0 17:56:31 10° WNW 18:02:25 29° NNW 18:07:56 11° NE
Cosmos 2297 Rocket 2.1 17:57:01 10° SSW 18:02:40 77° ESE 18:08:22 10° NNE
Lacrosse 5 rocket 2.2 18:01:22 10° WNW 18:04:36 33° NNW 18:06:24 20° NE
Cosmos 1943 4.4 18:00:30 10° NNW 18:05:02 24° NE 18:06:44 21° ENE
DNEPR-1 R/B 3.9 18:00:38 10° NW 18:05:24 72° NE 18:10:09 15° SE
Aureole 3 Rocket 3.3 18:03:39 10° NNW 18:07:35 56° W 18:10:45 10° S
IRAS Rocket 4.2 18:02:20 10° SSE 18:07:53 69° ENE 18:13:30 10° NNW
CZ-2D R/B 4.3 18:05:35 10° S 18:09:24 51° W 18:13:21 10° NNW
CZ-4C R/B 2.6 18:09:55 10° WSW 18:14:18 52° NW 18:19:25 12° NE
Cosmos 1464 Rocket 3.9 18:10:38 10° N 18:17:01 71° ENE 18:23:17 10° SSE
USA 267 3.5 18:15:08 18° ENE 18:20:04 65° NNW 18:26:32 10° W
Meteor 2-17 Rocket 4.3 18:14:10 10° S 18:20:10 72° E 18:26:13 10° NNE
Cosmos 2344 3.9 18:13:13 10° S 18:20:19 38° ESE 18:23:43 25° ENE
Cosmos 1602 4.4 18:18:01 10° S 18:19:21 25° S 18:19:21 25° S
ERS-1 Rocket 4.1 18:22:18 25° NE 18:22:18 25° NE 18:25:55 10° N
SJ-6B 2.3 18:20:46 10° SSE 18:24:13 88° ENE 18:27:40 10° NNW
CZ-4B R/B 3.9 18:28:24 47° ESE 18:29:01 53° ENE 18:32:48 10° N
Cosmos 2263 Rocket 2.7 18:25:58 10° S 18:31:06 37° ESE 18:31:44 36° E
Meteor 1-31 Rocket 3.2 18:36:36 39° NNE 18:36:36 39° NNE 18:39:00 10° N
Cosmos 2237 Rocket 3.4 18:30:25 10° NW 18:35:45 43° WSW 18:41:04 10° S
ADEOS 4.0 18:43:00 39° ENE 18:43:00 39° ENE 18:47:40 10° N
Resurs 01 Rocket 2.7 18:39:26 10° S 18:43:39 46° W 18:47:55 10° NNW
Cosmos 1570 Rocket 4.4 18:38:45 10° SW 18:43:59 64° WNW 18:49:13 10° NNE
SPOT 5 2.8 18:45:52 37° SSE 18:47:49 71° ENE 18:52:55 10° N
Tiangong 0.7 18:55:04 10° SW 18:55:41 13° SSW 18:55:41 13° SSW
SL-16 R/B 2.2 18:56:12 10° NNW 19:01:53 83° WSW 19:03:58 41° SSE
Cosmos 2227 Rocket 2.1 18:56:19 10° SSW 19:01:59 88° WNW 19:05:16 26° NNE
Cosmos 783 Rocket 4.3 18:57:14 10° SSW 19:02:28 72° ESE 19:03:04 64° ENE
Cosmos 1346 Rocket 4.2 19:01:07 10° SSW 19:02:50 26° SSW 19:02:50 26° SSW
Tsikada Rocket 3.8 19:02:18 10° S 19:08:21 64° E 19:14:28 10° NNE
CZ-4 R/B 3.0 19:17:56 26° NNW 19:17:56 26° NNW 19:19:42 10° NNW
Okean O Rocket 4.0 19:20:31 14° N 19:20:31 14° N 19:21:11 10° N
MetOp-B 4.3 19:18:21 57° NNE 19:18:21 57° NNE 19:22:52 10° N
ARIANE 6 FM1 Upper Stage 3.7 19:18:23 10° NW 19:21:05 41° WNW 19:21:05 41° WNW
CZ-4B R/B 3.2 19:26:08 64° N 19:26:08 64° N 19:30:40 10° NNW
Gbstr 26 Del rocket 4.4 19:19:37 10° SW 19:26:28 56° SSE 19:26:28 56° SSE
Terra 3.2 19:30:49 29° N 19:30:49 29° N 19:33:10 10° N
CZ-4B DEB 4.3 19:29:06 56° SSW 19:30:09 70° WSW 19:35:37 10° NNW
CSL-04 Rocket 4.5 19:35:11 27° SSW 19:37:43 46° W 19:42:48 10° NNW
MOS 1 4.3 19:41:21 76° W 19:41:21 76° W 19:46:52 10° NNW
Cosmos 44 Rocket 4.3 19:36:42 10° WSW 19:41:26 43° NW 19:41:49 42° NNW
Lacrosse 5 rocket 3.8 19:38:50 10° NW 19:39:50 16° NW 19:39:50 16° NW
Cosmos 1634 Rocket 4.0 19:35:53 10° NNW 19:42:12 77° W 19:43:02 66° SSW
Cosmos 2297 Rocket 4.1 19:42:36 10° W 19:47:19 26° NW 19:51:39 12° NNE
Cosmos 1943 3.7 19:44:06 10° NNW 19:48:32 55° NNW 19:48:32 55° NNW
ATLAS 2AS CENTAUR R/B 3.8 19:49:21 10° NW 19:55:18 31° NNE 19:55:21 31° NNE
BREEZE-M DEB (TANK) 4.0 19:42:40 10° W 19:56:30 61° SSW 19:56:30 61° SSW
ERS-1 Rocket 4.3 20:02:09 35° NW 20:02:09 35° NW 20:05:13 10° NNW
USA 267 3.7 20:02:29 51° N 20:02:38 51° N 20:08:55 10° WNW
CZ-4C R/B 3.9 19:59:33 10° WNW 20:03:54 25° N 20:04:22 25° N
BREEZE-M DEB (TANK) 4.4 19:58:47 10° SW 20:04:10 71° SSE 20:29:34 10° ENE
Cosmos 2279 Rocket 4.4 19:58:26 10° NNW 20:03:21 57° NNW 20:03:21 57° NNW
Cosmos 2263 Rocket 3.4 20:09:27 10° SW 20:13:31 39° W 20:13:31 39° W
Cosmos 2344 3.8 20:26:53 10° WSW 20:33:48 59° NW 20:33:48 59° NW
Cosmos 2227 Rocket 4.2 20:42:24 10° W 20:46:50 23° NW 20:47:09 23° NNW
